TimeEDT,TemperatureF,Dew PointF,Humidity,Sea Level PressureIn,VisibilityMPH,Wind Direction,Wind SpeedMPH,Gust SpeedMPH,PrecipitationIn,Events,Conditions,WindDirDegrees,DateUTC
12:52 AM,48.9,46.0,90,29.85,4.0,NNW,5.8,-,0.04,Rain,Light Rain,340,2013-05-25 04:52:00
1:52 AM,48.9,46.0,90,29.83,5.0,NNW,6.9,-,0.03,Rain,Light Rain,340,2013-05-25 05:52:00
2:52 AM,48.0,46.0,93,29.82,7.0,NW,10.4,-,0.00,,Overcast,320,2013-05-25 06:52:00
3:52 AM,48.0,46.0,93,29.80,9.0,NNW,8.1,-,0.04,Rain,Light Rain,330,2013-05-25 07:52:00
4:52 AM,48.0,45.0,89,29.79,10.0,NNW,10.4,-,0.01,,Overcast,340,2013-05-25 08:52:00
5:52 AM,48.0,45.0,89,29.80,4.0,NNW,6.9,-,0.00,Rain,Light Rain,330,2013-05-25 09:52:00
6:30 AM,48.2,46.4,93,29.80,4.0,NW,6.9,-,0.01,Rain,Light Rain,320,2013-05-25 10:30:00
6:52 AM,48.0,46.0,93,29.81,3.0,NNW,6.9,-,0.01,Rain,Light Rain,330,2013-05-25 10:52:00
7:36 AM,48.2,46.4,93,29.79,5.0,NNW,8.1,-,0.01,,Overcast,330,2013-05-25 11:36:00
7:52 AM,48.9,46.0,90,29.80,6.0,NNW,8.1,-,0.01,,Overcast,340,2013-05-25 11:52:00
8:04 AM,48.2,46.4,93,29.79,5.0,NNW,8.1,-,N/A,,Overcast,340,2013-05-25 12:04:00
8:52 AM,50.0,46.9,89,29.79,5.0,NNW,6.9,-,0.00,Rain,Light Rain,330,2013-05-25 12:52:00
9:03 AM,50.0,46.4,87,29.78,4.0,NNW,5.8,-,0.01,Rain,Light Rain,330,2013-05-25 13:03:00
9:20 AM,50.0,46.4,87,29.78,4.0,NNW,10.4,-,0.01,Rain,Light Rain,340,2013-05-25 13:20:00
9:33 AM,50.0,46.4,87,29.78,5.0,NNW,8.1,-,0.01,,Overcast,340,2013-05-25 13:33:00
9:52 AM,51.1,46.9,86,29.78,4.0,NW,8.1,-,0.01,Rain,Light Rain,320,2013-05-25 13:52:00
10:13 AM,50.0,48.2,94,29.78,2.5,NW,5.8,-,0.00,Rain,Light Rain,320,2013-05-25 14:13:00
10:45 AM,51.8,48.2,88,29.76,3.0,NW,9.2,-,0.02,Rain,Light Rain,310,2013-05-25 14:45:00
10:52 AM,50.0,46.9,89,29.77,3.0,NNW,10.4,-,0.02,Rain,Light Rain,340,2013-05-25 14:52:00
11:13 AM,50.0,48.2,94,29.76,4.0,NW,9.2,-,0.00,Rain,Light Rain,310,2013-05-25 15:13:00
11:22 AM,50.0,46.4,87,29.76,5.0,NW,8.1,-,0.00,Rain,Light Rain,320,2013-05-25 15:22:00
11:44 AM,51.8,46.4,82,29.76,4.0,North,8.1,-,0.00,Rain,Light Rain,350,2013-05-25 15:44:00
11:52 AM,51.1,46.9,86,29.76,4.0,NNW,9.2,-,0.00,Rain,Light Rain,340,2013-05-25 15:52:00
12:23 PM,50.0,46.4,87,29.76,3.0,NW,9.2,-,0.01,Rain,Light Rain,320,2013-05-25 16:23:00
12:40 PM,50.0,46.4,87,29.75,4.0,NW,9.2,-,0.01,Rain,Light Rain,310,2013-05-25 16:40:00
12:52 PM,50.0,46.9,89,29.76,6.0,NNW,9.2,-,0.01,Rain,Light Rain,330,2013-05-25 16:52:00
1:52 PM,51.1,46.0,83,29.75,6.0,NNW,6.9,-,0.01,Rain,Light Rain,330,2013-05-25 17:52:00
2:52 PM,48.9,45.0,86,29.76,3.0,NW,12.7,23.0,0.00,Rain,Light Rain,320,2013-05-25 18:52:00
3:52 PM,48.0,44.1,86,29.76,4.0,NNW,13.8,25.3,0.01,Rain,Light Rain,330,2013-05-25 19:52:00
4:52 PM,46.0,41.0,83,29.76,6.0,NW,18.4,26.5,0.01,Rain,Light Rain,320,2013-05-25 20:52:00
5:17 PM,46.4,41.0,81,29.75,10.0,NW,17.3,26.5,0.00,Rain,Light Rain,320,2013-05-25 21:17:00
5:52 PM,45.0,39.9,82,29.77,10.0,NW,12.7,20.7,0.00,,Overcast,320,2013-05-25 21:52:00
6:52 PM,43.0,37.9,82,29.78,10.0,NW,13.8,21.9,0.00,Rain,Light Rain,320,2013-05-25 22:52:00
7:52 PM,43.0,37.0,80,29.79,10.0,NW,11.5,20.7,0.01,Rain,Light Rain,320,2013-05-25 23:52:00
8:52 PM,42.1,37.9,85,29.79,10.0,NW,10.4,-,0.01,Rain,Light Rain,310,2013-05-26 00:52:00
9:52 PM,42.1,37.9,85,29.79,10.0,NW,9.2,-,0.02,Rain,Light Rain,310,2013-05-26 01:52:00
10:52 PM,42.1,37.0,82,29.78,10.0,NW,8.1,-,0.01,,Overcast,310,2013-05-26 02:52:00
11:28 PM,42.8,37.4,81,29.77,10.0,NW,9.2,-,N/A,,Overcast,320,2013-05-26 03:28:00
11:52 PM,42.1,36.0,79,29.78,10.0,NW,12.7,20.7,N/A,,Overcast,310,2013-05-26 03:52:00